Other Surface Observations
Issued by NWS

Home | Current Version | Previous Version | Text Only | Print | Product List | Glossary On
Versions: 1 2 3 4 5 6 7 8 9 10 11 12 13 14 15 16 17 18 19 20 21 22 23 24 25 26 27 28 29 30 31 32 33 34 35 36 37 38 39 40 41 42 43 44 45 46 47 48 49 50
252
SXUS52 KTAE 130318
OSOTAE
OSOTAE
North Florida/South Alabama/Southwest Georgia Weather Roundup
National Weather Service Tallahassee Florida
1000 PM EST FRI FEB 12 2016

Note: "fair" indicates few or no clouds below 12,000 feet with no
significant weather and/or obstructions to visibility.

!FLZ017-115-028-034-025-130400
...North Florida...

CITY           SKY/WX    TMP DP  RH WIND       PRES   REMARKS
TALLAHASSEE    PTCLDY    60  55  83 W8        30.17R
APALACHICOLA   CLEAR     62  60  93 W8        30.19R
PERRY          CLEAR     59  56  89 SW6       30.18R
CROSS CITY       N/A     62  57  83 W12       30.17S
JACKSONVILLE   PTCLDY    61  54  77 SW12      30.12R
$$

!FLZ112-006-005-002-011-130400
...Florida Panhandle...

CITY           SKY/WX    TMP DP  RH WIND       PRES   REMARKS
MARIANNA       CLEAR     60  56  86 W7        30.17R
BONIFAY        FAIR      55  53  93 CALM      30.19R
PANAMA CITY NW FAIR      60  57  89 SW7       30.18R
TYNDALL AFB    PTCLDY    62  59  91 W13       30.19R
TYND DRONE APT FAIR      62  60  95 MISG      30.19R
DE FUNIAK SPR  FAIR      58  55  89 NW3       30.20R
EGLIN AFB      PTCLDY    59  55  87 W8        30.19R
DESTIN         PTCLDY    63  57  81 VRB3      30.19R
HURLBURT       CLEAR     64  53  69 W5        30.19R
CRESTVIEW      CLEAR     56  52  86 W3        30.21R
PENSACOLA      PTCLDY    61  55  81 W8        30.21R
$$

!ALZ063-066-130400
...South Alabama...

CITY           SKY/WX    TMP DP  RH WIND       PRES   REMARKS
DOTHAN         CLEAR     57  36  45 NW9       30.20R
OZARK CAIRNS   CLEAR     57  39  50 NW9       30.18R
FT RUCKER HELI CLEAR     58  37  45 N6        30.17R
RUCKER HELI 3  FAIR      58  37  45 NW7       30.19R
RUCKER HELI 2  NOT AVBL
FLORALA APT    CLEAR     56  46  69 NW3       30.21R
ANDALUSIA      CLEAR     58  41  53 N6        30.20R
TROY           CLEAR     58  35  42 NW8       30.20R
EUFALA         FAIR      59  36  42 NW8       30.16R
MOBILE         PTCLDY    60  45  57 NW7       30.24R
$$

!GAZ120>161-130400
...Southwest and South Central Georgia...

CITY           SKY/WX    TMP DP  RH WIND       PRES   REMARKS
THOMASVILLE    FAIR      61  55  82 W6        30.16R
BAINBRIDGE     CLEAR     55  50  82 SW5       30.16S
MOODY AFB      CLEAR     61  49  64 W6        30.11R
VALDOSTA       CLEAR     61  53  75 CALM      30.14R
MOULTRIE       CLEAR     59  48  67 W3        30.15R
BLAKELY        CLEAR     61  41  48 CALM      30.17R
ALBANY         CLEAR     56  41  57 NW7       30.16R
TIFTON         FAIR      58  48  69 W5        30.12R
FITZGERALD     FAIR      58  43  57 W6        30.13R
CORDELE        FAIR      59  41  50 W7        30.14R
AMERICUS       FAIR      54  37  54 W8        30.16R
HOMERVILLE     FAIR      59  52  77 W7        30.12R
$$

!GMZ750-755-770-775-130400
...Coastal and Buoy Obs...

STATION/POSITION TIME  TEMP    WIND        PRES    VSBY  WAVE
                       AIR SEA DIR/SP/G                  HT/PER
                 (UTC) (F)     (DEG/KT/KT) (MB)    (MI)  (FT/S)
KEATON BEACH     0300   59     280/  9/ 11 1021.6R
CEDAR KEY        0300   59     260/  6/  8 1022.4S
C TOWER          NOT AVBL
APALACHICOLA BUO 0250   68 67  270/ 17/ 21 1022.8F         5/ 6
PANAMA CITY BUOY 0250   68 68  270/ 19/ 21 1023.4R         4/ 6
MOBILE BUOY      NOT AVBL
ORANGE BCH AL BU 0250   65 65  260/ 14/ 16 1022.3R         2/ 4
$$




USA.gov is the U.S. government's official web portal to all federal, state and local government web resources and services.